Tracking 29892 objects as of 21-Nov-2024
HD Live streaming from Space Station
objects crossing your sky now

OPS 6983 (DMSP 5C F1)

Track OPS 6983 (DMSP 5C F1) now!
10-day predictions
OPS 6983 (DMSP 5C F1) is classified as:


NORAD ID: 7411
Int'l Code: 1974-063A
Perigee: 773.1 km
Apogee: 830.7 km
Inclination: 98.6 °
Period: 100.8 minutes
Semi major axis: 7172 km
RCS: 1.494 m2 (large)
Launch date: August 9, 1974
Source: United States (US)
Launch site: AIR FORCE WESTERN TEST RANGE (AFWTR)
Your satellite tracking list
Your tracking list is empty




NASA's NSSDC Master Catalog

Two Line Element Set (TLE):
1 07411U 74063A   24325.58932178  .00000645  00000-0  26920-3 0  9999
2 07411  98.5581 168.0347 0040155 254.3120 105.3630 14.29104767612426
Source of the keplerian elements: AFSPC